Tucson, AZ

4:41 PM MST on September 20, 2019 (GMT -0700)
Tucson International

Weather History for KTUS - July, 2019

Change the Weather History Date:

Wednesday, July 17, 2019

  Actual Average Record
Temperature  
Mean Temperature 92 °F 87 °F  
Max Temperature 101 °F 100 °F 111 °F (2005)
Min Temperature 83 °F 75 °F 65 °F (1909)
Degree Days  
Heating Degree Days 0 0  
Month to date heating degree days 0 0  
Since 1 June heating degree days 0 0  
Since 1 July heating degree days 0 0  
Cooling Degree Days 27 22  
Month to date cooling degree days 435 386  
Year to date cooling degree days 1420 1482  
Since 1 June cooling degree days 1048 980  
Growing Degree Days 41 (Base 50)    
Moisture  
Dew Point 58 °F    
Average Humidity 34    
Maximum Humidity 49    
Minimum Humidity 14    
Precipitation  
Precipitation 0.00 in 0.09 in 1.84 in (1908)
Month to date precipitation 0.29 0.98  
Year to date precipitation 5.32 4.25  
Sea Level Pressure  
Sea Level Pressure 29.85 in    
Wind  
Wind Speed 9 mph (SW)    
Max Wind Speed 21 mph    
Max Gust Speed 28 mph    
Visibility 10 miles    
Events Thunderstorm    
T = Trace of Precipitation, MM = Missing Value Source: NWS Daily Summary

Daily Weather History Graph

Daily Weather History Graph

Search for Another Location

Airport or City:

Astronomy

Jul. 17, 2019 Rise Set
Actual Time 5:29 AM MST 7:30 PM MST
Civil Twilight 5:01 AM MST 7:57 PM MST
Nautical Twilight 4:28 AM MST 8:31 PM MST
Astronomical Twilight 3:52 AM MST 9:07 PM MST
Moon 8:22 PM MST (7/17) 6:05 AM MST (7/17)
Length of Visible Light 14h 56m
Length of Day
14h 01m
Full, 99% of the Moon is Illuminated
Jul 17
Full
Jul 24
Last Quarter
Jul 31
New
Aug 7
First Quarter
Aug 15
Full

Hourly Weather History & Observations

Time (MST) Temp. Heat Index Dew Point Humidity Pressure Visibility Wind Dir Wind Speed Gust Speed Precip Events Conditions
12:53 AM 86.0 °F 85.7 °F 60.1 °F 41% 29.75 in 10.0 mi SSE 5.8 mph - N/A   Clear
1:53 AM 84.9 °F 84.4 °F 59.0 °F 41% 29.76 in 10.0 mi SSE 8.1 mph - N/A   Clear
2:53 AM 84.0 °F 84.4 °F 61.0 °F 46% 29.77 in 10.0 mi South 10.4 mph - N/A   Clear
3:53 AM 86.0 °F 84.9 °F 57.0 °F 37% 29.78 in 10.0 mi SSW 6.9 mph - N/A   Clear
4:53 AM 86.0 °F 84.7 °F 55.9 °F 36% 29.82 in 10.0 mi SSW 9.2 mph - N/A   Clear
5:53 AM 84.9 °F 84.2 °F 57.9 °F 40% 29.84 in 10.0 mi SSW 12.7 mph 26.5 mph N/A   Clear
6:32 AM 82.9 °F 83.7 °F 62.1 °F 49% 30.05 in 10.0 mi WSW 10.4 mph - N/A   Clear
6:53 AM 84.0 °F 84.5 °F 62.1 °F 47% 29.90 in 10.0 mi West 8.1 mph - N/A   Clear
7:53 AM 86.0 °F 86.8 °F 63.0 °F 46% 29.92 in 10.0 mi South 11.5 mph - N/A   Clear
8:53 AM 84.9 °F 85.0 °F 61.0 °F 44% 29.92 in 10.0 mi South 11.5 mph - N/A   Clear
9:53 AM 87.1 °F 86.7 °F 60.1 °F 40% 29.91 in 10.0 mi SSW 11.5 mph - N/A   Clear
10:53 AM 89.1 °F 88.8 °F 60.1 °F 38% 29.91 in 10.0 mi West 6.9 mph - N/A   Clear
11:53 AM 91.9 °F 90.8 °F 57.9 °F 32% 29.89 in 10.0 mi NW 3.5 mph - N/A   Clear
12:53 PM 95.0 °F 93.0 °F 55.0 °F 26% 29.87 in 10.0 mi NW 6.9 mph - N/A   Clear
1:53 PM 97.0 °F 95.0 °F 55.0 °F 24% 29.84 in 10.0 mi West 9.2 mph - N/A   Clear
2:53 PM 99.0 °F 96.5 °F 53.1 °F 21% 29.81 in 10.0 mi NNW 8.1 mph 17.3 mph N/A   Clear
3:53 PM 100.0 °F 98.3 °F 55.0 °F 22% 29.78 in 10.0 mi Variable 5.8 mph 17.3 mph N/A   Clear
4:53 PM 100.0 °F 98.3 °F 55.0 °F 22% 29.75 in 10.0 mi NW 8.1 mph 18.4 mph N/A   Clear
5:53 PM 99.0 °F 97.3 °F 55.0 °F 23% 29.75 in 10.0 mi NW 9.2 mph - N/A   Scattered Clouds
6:43 PM 98.1 °F 96.4 °F 55.0 °F 24% 29.95 in 10.0 mi NW 11.5 mph - N/A Thunderstorm Partly Cloudy
6:53 PM 95.0 °F 93.7 °F 57.0 °F 28% 29.78 in 10.0 mi South 15.0 mph - N/A Thunderstorm Scattered Clouds
7:26 PM 91.0 °F 90.0 °F 57.9 °F 33% 29.96 in 10.0 mi South 15.0 mph 23.0 mph N/A   Partly Cloudy
7:53 PM 90.0 °F 88.6 °F 57.0 °F 33% 29.81 in 10.0 mi South 13.8 mph - N/A   Clear
8:53 PM 87.1 °F 85.7 °F 55.9 °F 35% 29.85 in 10.0 mi South 16.1 mph - N/A   Clear
9:53 PM 87.1 °F 85.9 °F 57.0 °F 36% 29.86 in 10.0 mi South 9.2 mph - N/A   Partly Cloudy
10:53 PM 86.0 °F 85.0 °F 57.9 °F 38% 29.88 in 10.0 mi SSE 9.2 mph - N/A   Clear
11:53 PM 84.9 °F 84.2 °F 57.9 °F 40% 29.88 in 10.0 mi ESE 3.5 mph - N/A   Clear